This demonstration page uses our WeatherBlox Daily Observations layout. Learn more.

39.29038, -76.61219

Hourly Observations for October 17, 2020

Temp ( °F °C ) Dew Point ( °F °C ) Humidity (%) Winds ( mph kmh ) Pressure ( in mb ) Visibility ( mi km ) Precip ( " mm )
12:54 am 00:54 Cloudy 52 11.1 40 4.4 64 64 NW 5 7 30.18 1022 10 16.0934 0 0
1:54 am 01:54 Mostly Cloudy 50 10 39 3.9 66 66 NW 3 6 30.19 1023 10 16.0934 0 0
2:54 am 02:54 Partly Cloudy 48 8.9 38 3.3 68 68 NNW 5 7 30.2 1023 10 16.0934 0 0
3:54 am 03:54 Mostly Clear 47 8.3 38 3.3 71 71 NNW 5 7 30.21 1023 10 16.0934 0 0
4:54 am 04:54 Clear 43 6.1 38 3.3 82 82 W 5 7 30.24 1024 10 16.0934 0 0
5:54 am 05:54 Clear 42 5.6 38 3.3 85 85 Calm 30.25 1025 10 16.0934 0 0
6:54 am 06:54 Clear 42 5.6 38 3.3 85 85 NNW 3 6 30.27 1025 10 16.0934 0 0
7:54 am 07:54 Mostly Sunny 41 5 37 2.8 86 86 W 3 6 30.3 1026 10 16.0934 0 0
8:54 am 08:54 Mostly Sunny 48 8.9 40 4.4 74 74 WNW 6 9 30.34 1027 10 16.0934 0 0
9:54 am 09:54 Mostly Sunny 53 11.7 37 2.8 55 55 NNW 3 6 30.37 1029 10 16.0934 0 0
10:54 am 10:54 Mostly Sunny 55 12.8 38 3.3 53 53 Calm 30.37 1029 10 16.0934 0 0
11:54 am 11:54 Partly Cloudy 58 14.4 39 3.9 50 50 Calm 30.38 1029 10 16.0934 0 0
12:54 pm 12:54 Partly Cloudy 61 16.1 33 0.6 35 35 NW 9 15 30.35 1028 10 16.0934 0 0
1:54 pm 13:54 Partly Cloudy 62 16.7 31 -0.6 31 31 N 6 9 30.34 1027 10 16.0934 0 0
2:54 pm 14:54 Mostly Sunny 63 17.2 31 -0.6 30 30 N 7 11 30.33 1027 10 16.0934 0 0
3:54 pm 15:54 Mostly Sunny 62 16.7 30 -1.1 30 30 VRB 3 6 30.33 1027 10 16.0934 0 0
4:54 pm 16:54 Mostly Sunny 62 16.7 31 -0.6 31 31 ENE 6 9 30.34 1027 10 16.0934 0 0
5:54 pm 17:54 Mostly Sunny 59 15 34 1.1 39 39 SSE 3 6 30.36 1028 10 16.0934 0 0
6:54 pm 18:54 Mostly Clear 55 12.8 37 2.8 51 51 SE 6 9 30.37 1028 10 16.0934 0 0
7:54 pm 19:54 Clear 53 11.7 37 2.8 55 55 S 5 7 30.38 1029 10 16.0934 0 0
8:54 pm 20:54 Clear 47 8.3 40 4.4 77 77 Calm 30.38 1029 10 16.0934 0 0
9:54 pm 21:54 Clear 44 6.7 39 3.9 83 83 Calm 30.4 1030 10 16.0934 0 0
10:54 pm 22:54 Clear 44 6.7 40 4.4 85 85 Calm 30.4 1030 10 16.0934 0 0
11:54 pm 23:54 Mostly Clear 42 5.6 39 3.9 89 89 W 3 6 30.41 1030 10 16.0934 0 0

Powered by AerisWeather